Regional Weather Roundup
Issued by NWS

Home | Current Version | Previous Version | Graphics & Text | Print | Product List | Glossary On
Versions: 1 2 3 4 5 6 7 8 9 10 11 12 13 14 15 16 17 18 19 20 21 22 23 24 25 26 27 28 29 30 31 32 33 34 35 36 37 38 39 40 41 42 43 44 45 46 47 48 49 50
000
ASUS43 KIND 031309
RWRIN

WEATHER ROUNDUP FOR INDIANA
NATIONAL WEATHER SERVICE INDIANAPOLIS IN
800 AM EST TUE MAR 03 2015

NOTE: "FAIR" INDICATES FEW OR NO CLOUDS BELOW 12,000 FEET WITH NO
SIGNIFICANT WEATHER AND/OR OBSTRUCTIONS TO VISIBILITY.

* - STATION DOES NOT REPORT WEATHER SUCH AS PRECIPITATION OR FOG.

+ - STATION NOT QUALITY CONTROLLED BY THE NATIONAL WEATHER SERVICE.
    USE DATA WITH CAUTION...ESPECIALLY DEWPOINT AND RELATIVE
    HUMIDITY OBSERVATIONS.

INZ001>003-010>013-019-020-031400-
NORTHWEST INDIANA

CITY           SKY/WX    TMP DP  RH WIND       PRES   REMARKS
GARY /AIRPORT/ LGT SNOW  28  23  80 SE16      29.93F WCI  17
KNOX *+          N/A     27  14  59 SE14      29.97F WCI  15
LA PORTE +     CLOUDY    28  23  83 SE10      29.95F FOG     WCI  18
MICHIGAN CITY+ MIX PCPN  28  19  69 SE9       29.94F WCI  20
MONTICELLO +   CLOUDY    26  24  90 SE8       29.96F FOG     WCI  18
RENSSELAER +   CLOUDY    28  28 100 SE14      29.98F FOG     WCI  17
VALPARAISO     CLOUDY    26  23  88 SE10      29.95F FOG     WCI  16

$$

LMZ046-743>745-031400-
SOUTHERN LAKE MICHIGAN

STATION/POSITION TIME  TEMP WIND        PRES
                       AIR  DIR/SP/G
                 (UTC) (F)  (DEG/KT/KT) (MB)
MICHIGAN CITY    1300   26  130/ 13/ 17   N/A

$$

INZ004-005-014>016-021>024-031400-
NORTH CENTRAL INDIANA

CITY           SKY/WX    TMP DP  RH WIND       PRES   REMARKS
ELKHART        CLOUDY    25  18  74 SE9       30.02F WCI  15
GOSHEN         CLOUDY    24  19  81 SE9       30.02F HAZE    WCI  14
LOGANSPORT +   CLOUDY    27  23  86 SE15      30.00F FOG     WCI  15
PERU/GRISSOM   FRZ DRZL  27  23  86 SE13      30.00F WCI  16
ROCHESTER +    CLOUDY    30  25  80 SE10      30.02F WCI  21
SOUTH BEND     CLOUDY    25  19  78 SE14      29.99F WCI  13
WARSAW +       CLOUDY    27  21  80 SE8       30.03F WCI  18

$$

INZ006>009-017-018-025>027-031400-
NORTHEAST INDIANA

CITY           SKY/WX    TMP DP  RH WIND       PRES   REMARKS
ANGOLA *+      MOCLDY    21  18  86 SE8       30.04F WCI  12
AUBURN +       CLOUDY    25  19  80 SE5       30.08F WCI  19
FORT WAYNE     CLOUDY    26  20  77 SE6       30.08F WCI  19
HUNTINGTON +   CLOUDY    26  19  74 SE7       30.05F WCI  18

$$

INZ028-029-035-036-043>045-051>053-031400-
WEST CENTRAL INDIANA

CITY           SKY/WX    TMP DP  RH WIND       PRES   REMARKS
CRAWFORDSVL +  CLOUDY    26  17  67 SE7       30.01F WCI  19
GREENCASTLE +  CLOUDY    28  18  64 SE8       30.01F WCI  20
LAFAYETTE      CLOUDY    27  22  81 SE10      29.98F WCI  17
TERRE HAUTE    CLOUDY    31  23  72 SE10      30.00F WCI  22

$$

INZ030>032-037>040-046>048-054>057-064-065-031400-
CENTRAL INDIANA

CITY           SKY/WX    TMP DP  RH WIND       PRES   REMARKS
CP ATTERBURY + CLOUDY    32  21  64 SE7       30.05F WCI  26
FRANKFORT +    MOCLDY    28  23  82 E13       30.03F WCI  17
GREENWOOD *+   CLOUDY    28  18  64 SE5       30.04F WCI  23
INDIANAPOLIS   CLOUDY    28  19  69 SE10      30.02F WCI  19
-EAGLE CREEK   CLOUDY    28  19  69 SE9       30.02F WCI  19
KOKOMO *+      CLOUDY    27  21  80 SE12      30.03F WCI  16
MARION +       MIX PCPN  27  21  78 SE9       30.04F WCI  17
MT COMFORT *+  CLOUDY    28  12  50 SE7       30.04F WCI  21
SHELBYVILLE    NOT AVBL
ZIONSVILLE +   MIX PCPN  28  19  68 SE8       30.03F WCI  20

$$

INZ033-034-041-042-049-050-058-059-031400-
EAST CENTRAL INDIANA

CITY           SKY/WX    TMP DP  RH WIND       PRES   REMARKS
MUNCIE         CLOUDY    28  19  69 SE6       30.06F WCI  22

$$

INZ060-061-067>069-081>083-085>088-031400-
SOUTHWEST INDIANA

CITY           SKY/WX    TMP DP  RH WIND       PRES   REMARKS
EVANSVILLE     LGT RAIN  35  29  78 SE6       30.03F WCI  30
HUNTINGBURG *+ CLOUDY    36  25  64 SE8       30.04F
WASHINGTON +   CLOUDY    34  24  66 S8        30.02F WCI  27

$$

INZ062-063-066-070>080-084-089>092-031400-
SOUTH CENTRAL AND SOUTHEAST INDIANA

CITY           SKY/WX    TMP DP  RH WIND       PRES   REMARKS
BLOOMINGTON    CLOUDY    30  22  72 SE8       30.01F WCI  22
NORTH VERNON + CLOUDY    32  19  59 SE6       30.07F WCI  26
SEYMOUR +      CLOUDY    32  21  64 S6        30.07S WCI  26

$$




USA.gov is the U.S. government's official web portal to all federal, state and local government web resources and services.